Location: Newark
(9.4667°S, 159.8167°E)
Time: 10:52:27
(UTC+00:00)

Vanguard 1 - Pass Details

Date: 14 November 2019
Orbit: 652 x 3832 km, 34.3° (Epoch: 10 December)

Event Time Altitude Azimuth Distance (km) Brightness Sun altitude
Rises 11:21:29 0° 288° (WNW) 4,699 13.8 -52.3°
Reaches altitude 10° 11:24:05 10° 284° (WNW) 4,032 13.3 -52.7°
Enters shadow 11:31:37 48° 252° (WSW) 2,842 12.3 -54.0°
Exits shadow 11:36:56 57° 189° (S) 3,041 12.4 -54.8°
Drops below altitude 10° 11:55:44 10° 131° (SE) 6,713 14.3 -57.4°
Sets 12:01:45 0° 127° (SE) 7,923 14.7 -58.2°
